Temperature
16 17 17 17 14 12 14 14 14 15 14 14 15 15 14 14 14 15 15 15 15 15 15 16 16 15 15 15 15 15 15 15 15 15 15 15 15 15 15 15 15 15 15 15 15 15 15 15 15
16 16 17 16 12 13 14 14 14 14 15 14 14 14 14 14 14 14 15 15 15 15 15 15 15 15 15 15 15 15 15 15 15 15 15 15 15 15 15 15 15 15 15 15 15 15 15 15 15
16 16 16 11 12 13 14 14 13 14 14 14 13 13 13 13 14 14 14 15 15 15 15 15 15 15 15 15 15 15 15 15 15 15 15 15 15 15 15 15 15 15 15 15 15 15 15 15 15
16 16 15 11 13 12 13 14 13 13 14 14 13 12 13 13 14 14 14 14 14 14 15 15 15 15 15 15 15 15 15 15 15 15 15 15 15 15 15 15 15 15 15 15 14 14 14 14 14
15 15 12 11 12 12 12 13 13 13 13 13 13 12 12 13 13 14 14 14 14 14 14 14 14 14 15 15 15 15 15 15 15 15 15 15 15 15 15 15 15 15 15 15 14 14 14 14 14
15 11 11 11 12 12 12 13 13 12 12 12 12 12 12 13 13 14 14 14 14 14 14 14 14 14 14 14 14 14 14 14 14 14 14 15 15 15 15 15 15 15 14 14 14 14 14 14 14
13 10 11 11 11 12 13 13 13 12 12 12 13 11 12 13 13 13 13 13 13 13 14 14 14 14 14 14 14 14 14 14 14 14 14 14 14 14 14 14 14 14 14 14 14 14 14 14 13
14 10 11 10 11 12 12 13 13 13 12 13 13 12 12 12 13 13 13 13 13 13 13 13 13 13 14 14 14 14 14 14 14 14 14 14 14 14 14 14 14 14 14 14 14 14 13 13 13
13 10 10 10 11 12 12 12 12 12 12 12 12 12 12 12 12 12 13 13 13 13 13 13 13 13 13 13 13 13 13 14 14 14 14 14 14 14 14 14 14 14 14 13 13 13 13 13 13
11 9 10 11 11 11 11 12 11 12 11 11 11 12 12 12 12 12 12 12 12 12 12 12 12 13 13 13 13 13 13 13 13 14 14 13 13 13 13 13 13 13 13 13 13 13 13 13 13
10 9 10 11 11 11 11 11 11 11 10 11 11 12 12 12 12 12 12 12 12 12 12 12 12 12 12 13 13 13 13 13 13 13 13 13 13 13 13 13 13 13 13 13 13 13 13 12 12
9 9 10 10 11 11 11 11 10 10 11 12 12 12 12 11 12 11 12 12 11 11 12 12 12 12 12 12 12 12 12 13 13 13 13 13 13 13 13 13 13 12 12 12 12 12 12 12 12
9 9 10 10 11 10 10 10 10 10 11 11 11 11 11 11 11 11 11 11 11 11 11 11 11 11 12 12 12 12 12 12 12 12 12 12 12 12 12 12 12 12 12 12 12 12 12 12 12
9 9 9 10 10 10 9 9 9 9 10 11 11 11 11 11 10 10 10 11 11 11 11 11 11 11 11 11 12 12 12 12 12 12 12 12 12 12 12 12 12 12 12 12 11 11 11 11 11
9 9 9 9 9 9 9 9 8 9 10 10 10 10 10 10 10 10 10 10 11 11 11 11 11 11 11 11 11 11 11 11 11 11 11 11 11 11 12 12 12 11 11 11 11 11 11 11 11
8 8 8 9 8 9 9 9 8 9 9 9 9 9 9 9 9 9 10 10 10 10 10 10 10 10 10 10 11 11 11 11 11 11 11 11 11 11 11 11 11 11 11 11 11 11 11 11 10
7 7 8 8 8 8 8 8 8 8 8 8 8 8 8 8 9 9 9 9 10 10 10 10 10 10 10 10 10 10 10 10 10 10 10 11 11 11 11 11 11 11 11 11 10 10 10 10 10
7 7 7 8 8 7 7 7 7 7 7 7 7 7 7 8 8 8 8 9 9 9 9 9 9 10 10 10 10 10 10 10 10 10 10 10 10 10 10 10 10 10 10 10 10 10 10 10 10
7 7 7 7 7 7 7 6 6 6 6 6 6 6 7 7 8 8 8 8 8 9 9 9 9 9 9 9 9 10 10 9 9 9 10 10 9 9 10 10 10 10 10 10 10 10 9 9 9
7 7 7 7 7 7 6 6 6 5 5 6 6 6 7 7 7 8 8 8 8 8 8 8 8 9 9 9 9 9 9 9 9 9 9 9 9 9 9 9 9 9 9 9 9 9 9 9 9
6 6 6 6 6 6 6 6 6 5 5 6 6 6 6 6 7 7 7 7 7 8 8 8 8 8 8 8 8 8 9 9 9 9 9 9 8 8 8 8 9 8 9 9 9 9 9 8 8
6 6 6 6 6 5 6 6 6 5 4 4 5 5 6 6 6 7 7 7 7 7 7 8 8 8 8 8 8 8 8 8 8 8 8 8 8 8 8 8 8 8 8 8 8 8 8 8 8
6 6 5 5 5 5 4 5 5 4 4 4 4 5 5 6 6 6 6 6 6 7 7 7 7 7 7 7 7 7 7 7 7 7 7 7 7 7 7 7 7 7 7 7 7 7 7 7 7
5 5 4 3 4 5 4 4 5 3 4 4 4 5 5 6 6 6 6 6 6 6 6 6 7 7 7 7 7 7 7 7 7 7 7 7 7 7 7 7 7 7 7 7 7 7 7 7 6
5 5 4 4 3 4 4 4 4 4 4 4 4 4 5 5 5 6 6 5 6 6 6 6 6 6 6 6 6 6 6 6 6 6 6 6 6 6 6 6 6 6 6 6 6 6 6 6 6
4 5 5 5 4 3 3 3 4 4 3 4 4 4 5 5 5 5 5 5 5 5 5 5 5 5 5 5 5 6 6 6 6 6 6 6 6 6 6 6 6 6 6 6 6 6 6 5 5
4 4 4 3 3 3 3 3 3 3 3 3 3 4 4 4 5 5 5 5 5 5 5 5 5 5 5 5 5 5 5 5 5 5 5 5 5 5 5 5 5 5 5 5 5 5 5 5 5
4 3 2 3 4 4 4 3 3 4 3 3 2 3 4 4 4 4 4 4 4 4 4 4 4 4 4 4 4 4 4 5 5 4 5 5 5 5 5 5 5 5 5 5 5 4 4 4 4
3 3 2 2 2 3 4 4 3 3 3 2 2 3 3 3 4 4 4 4 3 3 3 3 3 3 4 4 4 4 4 4 4 4 4 4 4 4 4 4 4 4 4 4 4 4 4 4 4
2 2 2 3 2 1 1 3 3 2 2 2 2 3 3 3 3 3 3 3 3 3 3 3 3 3 3 3 3 3 3 3 3 3 3 3 4 4 4 4 4 4 4 4 3 3 3 3 3
Wind_Speed
9 5 2 4 5 5 2 3 2 1 0 0 1 3 4 4 3 2 1 2 2 2 3 4 5 5 6 6 6 7 9 11 11 11 11 11 12 12 12 12 12 11 11 11 12 13 13 13 13
3 3 5 5 5 1 4 3 2 2 2 2 3 3 3 0 1 0 1 1 2 3 3 4 5 5 6 6 6 7 8 10 10 10 10 11 11 12 12 12 11 11 10 11 12 12 12 12 12
2 4 5 5 4 5 4 2 3 1 1 2 2 2 1 0 1 1 2 0 2 3 3 4 5 6 6 6 6 6 7 9 10 10 10 10 10 10 11 11 11 11 11 11 11 11 12 12 11
3 5 5 4 3 3 3 1 1 1 2 3 3 2 1 1 1 1 1 2 3 2 3 4 5 6 6 6 6 6 7 9 10 10 10 10 10 10 10 11 11 11 11 11 11 10 10 11 11
4 4 4 0 3 3 2 2 1 1 0 1 2 2 0 3 2 2 2 2 3 2 3 4 5 5 5 5 6 5 7 8 10 10 10 10 10 10 10 10 10 10 10 10 10 10 10 10 10
4 4 3 3 4 3 2 1 1 1 1 1 2 2 1 2 3 2 2 2 2 3 3 4 5 5 5 5 5 5 6 7 9 9 9 10 10 9 10 10 10 10 10 10 10 9 9 9 9
4 4 4 5 3 3 2 1 2 3 2 2 3 3 2 2 2 2 3 3 3 3 3 3 3 4 4 5 5 5 5 6 7 8 9 9 9 9 9 9 9 9 9 9 9 9 9 9 9
5 5 3 4 4 4 1 1 0 2 2 0 2 4 3 2 1 3 4 4 4 3 3 3 3 4 3 4 4 4 5 7 7 8 8 9 9 9 8 9 9 9 9 9 9 9 9 8 8
4 3 4 6 6 4 1 1 2 1 2 2 1 1 1 3 4 4 4 4 3 3 3 3 3 3 3 3 4 4 4 6 6 7 8 9 8 8 7 7 9 9 9 9 9 9 8 8 8
4 4 6 4 3 2 1 1 1 2 2 1 2 2 2 4 4 4 2 2 1 1 2 2 2 2 2 3 4 4 4 5 6 6 7 7 7 7 7 7 8 9 9 9 9 9 8 7 7
3 4 3 1 1 1 0 1 1 3 1 3 4 2 2 3 3 3 2 1 1 0 2 2 1 2 2 2 3 3 4 4 5 6 7 7 7 7 6 6 6 7 7 7 7 7 7 6 5
2 1 1 1 1 1 1 0 1 1 4 2 2 4 4 4 3 3 2 1 0 1 2 2 1 1 2 3 3 3 3 4 4 5 6 6 5 5 4 4 5 5 5 5 6 5 5 5 5
1 1 0 0 1 1 1 1 1 3 4 1 2 4 4 3 2 1 0 0 1 1 2 2 1 1 2 2 3 3 3 3 4 5 5 6 4 4 4 3 4 4 5 4 4 4 4 3 3
1 0 1 2 1 1 1 2 1 3 1 2 3 3 3 2 2 0 1 1 1 1 1 1 1 1 2 2 2 3 3 3 4 4 4 6 5 4 4 3 3 3 4 4 3 3 3 2 2
1 1 3 2 1 1 1 3 3 3 1 2 2 2 1 0 0 0 1 1 1 1 2 1 0 1 2 2 3 3 3 3 3 3 4 5 5 5 5 4 3 3 4 4 3 3 3 2 2
2 2 2 3 0 1 3 5 3 1 2 1 1 1 1 0 1 1 2 2 2 1 1 2 0 1 2 2 3 3 4 3 2 3 4 4 5 5 5 4 2 3 4 3 2 2 2 1 1
2 1 3 3 1 1 3 5 4 1 1 2 2 2 1 1 2 2 2 2 2 1 1 1 1 1 2 3 4 4 4 3 3 3 3 4 4 5 5 3 3 4 3 2 2 2 1 1 0
4 3 3 4 2 0 2 6 6 3 2 3 3 2 2 2 3 2 2 2 2 2 2 2 1 2 2 3 3 3 3 3 3 3 3 3 4 4 5 3 3 4 3 2 2 2 2 1 1
3 3 4 4 2 1 4 7 7 5 3 4 3 3 3 3 3 2 1 2 2 3 3 2 2 2 2 2 1 2 1 1 1 2 3 3 3 4 4 3 3 3 3 3 3 2 2 1 1
2 2 3 3 1 1 4 8 7 5 4 5 5 4 4 3 2 2 2 2 2 2 2 2 1 2 1 1 1 1 1 1 1 2 3 4 3 3 3 3 2 2 2 3 3 2 2 1 1
3 5 4 3 3 2 3 6 3 2 1 1 2 3 3 3 3 2 1 1 1 2 1 1 1 1 1 2 2 2 2 2 2 1 1 2 3 3 3 3 3 2 2 2 2 3 4 2 1
4 4 3 2 0 3 1 4 6 3 2 2 3 2 3 3 3 2 1 1 1 2 1 1 1 1 1 2 2 2 2 1 1 0 1 2 2 3 3 3 2 2 2 2 2 2 2 3 2
4 2 2 1 2 2 1 3 7 2 3 5 4 3 3 3 3 3 2 2 2 1 0 1 2 2 2 2 2 3 2 1 1 1 2 1 2 2 2 2 2 1 1 1 1 2 2 2 3
3 4 4 3 2 3 4 5 7 4 5 4 4 4 3 2 1 2 1 1 1 1 1 2 2 3 3 2 2 2 2 2 2 2 1 1 0 1 2 1 2 1 1 1 2 2 2 2 2
3 4 2 3 2 6 2 4 8 5 4 4 4 4 3 2 1 1 1 0 0 1 1 2 2 2 2 2 2 1 0 1 1 1 1 0 1 0 1 0 0 1 1 1 1 2 2 2 3
3 5 6 5 5 4 2 6 6 3 2 2 2 2 1 2 1 1 1 1 0 0 1 1 1 1 2 2 1 1 1 1 1 0 1 1 0 1 1 0 0 0 0 1 1 1 2 2 2
4 3 3 4 1 2 5 6 7 1 1 1 0 0 1 2 2 1 1 1 1 0 0 1 1 1 1 1 2 2 2 1 1 1 0 0 0 1 1 0 0 1 0 0 1 2 2 2 2
3 5 4 4 3 4 6 5 5 4 4 3 2 1 2 2 3 2 2 1 1 1 0 1 1 0 1 1 1 1 1 1 1 1 1 1 1 0 1 1 1 1 1 1 1 1 2 2 2
3 3 3 3 4 5 4 6 4 6 5 4 4 2 2 2 2 2 2 2 1 1 1 1 1 1 1 1 1 1 1 1 1 1 1 1 1 1 1 1 1 2 2 2 2 2 2 2 3
3 5 6 4 4 4 3 7 3 3 4 4 3 2 2 2 2 2 2 1 1 1 0 0 0 0 0 1 1 1 1 2 1 1 2 2 1 1 1 1 2 2 2 2 3 3 3 3 4
Wind_Direction
343 357 53 55 58 56 223 250 232 255 191 47 78 114 135 148 160 189 359 75 70 112 148 146 133 131 125 114 109 116 126 123 117 116 115 118 118 116 113 112 110 107 105 104 103 101 98 95 93
349 19 53 60 96 138 258 248 221 228 166 104 47 68 94 128 338 34 5 351 77 104 118 130 129 127 130 121 113 114 127 128 123 119 117 116 118 116 113 112 112 110 108 108 106 104 101 99 97
24 49 79 80 129 182 214 226 214 326 60 91 71 40 112 214 305 248 306 329 80 92 109 121 120 119 127 127 118 119 129 134 129 126 123 117 117 118 116 114 112 110 110 110 108 105 103 102 100
69 51 58 85 198 219 214 234 187 108 44 47 101 54 326 329 283 282 334 97 102 83 101 124 122 119 118 128 125 123 133 137 134 130 127 123 118 121 121 118 114 112 109 109 108 106 105 103 102
62 79 77 101 238 249 248 276 212 136 124 30 105 128 263 340 11 52 89 96 114 98 93 120 125 120 122 128 131 126 135 137 137 135 132 129 122 119 121 120 118 116 114 112 110 107 107 106 105
64 78 117 206 235 264 276 269 160 157 161 85 124 138 217 351 36 45 68 79 93 101 81 107 129 124 125 124 127 129 134 134 137 137 133 129 124 121 121 122 120 119 116 113 112 109 109 108 106
114 117 171 191 216 251 250 189 165 173 171 210 166 145 248 313 353 47 56 73 70 71 73 73 101 118 127 126 120 130 134 137 138 139 134 130 125 122 120 118 119 117 115 114 113 110 110 110 107
123 119 155 191 199 231 236 145 132 163 191 100 131 161 224 257 51 67 67 69 63 53 50 54 72 90 104 123 123 124 136 138 136 140 134 129 123 121 119 117 118 116 113 112 113 112 111 109 107
94 103 192 201 193 216 177 112 12 29 102 47 357 247 284 119 103 86 72 57 50 38 27 31 49 69 84 108 121 119 129 131 129 135 135 128 117 116 119 117 117 115 111 108 108 108 105 105 104
97 173 209 201 189 179 130 130 164 74 44 4 344 5 70 114 126 127 122 119 93 349 345 14 42 58 75 101 107 108 113 118 119 125 128 119 114 113 114 117 117 116 112 107 106 106 100 95 93
134 186 194 200 166 119 72 35 61 139 238 230 222 207 133 132 145 154 161 172 213 302 333 338 20 52 84 93 102 100 105 109 113 116 122 119 111 108 105 108 106 104 101 93 95 92 91 92 92
134 244 184 200 121 83 136 56 20 208 241 278 212 168 153 157 174 184 195 201 49 19 332 334 19 53 87 100 106 109 109 110 107 125 123 122 113 106 103 99 97 92 89 85 84 87 91 90 92
181 253 295 224 54 60 51 266 244 273 286 355 102 120 144 162 184 220 204 65 67 15 325 328 355 117 103 102 107 113 113 112 113 120 126 128 123 123 118 108 101 96 97 97 92 91 96 97 89
181 179 301 329 302 290 180 274 211 267 303 92 113 134 155 167 183 61 22 8 341 310 306 312 289 127 111 124 123 115 110 109 113 117 126 129 131 130 129 122 110 103 106 107 111 110 111 112 105
92 40 342 315 241 228 142 302 235 250 188 125 145 154 151 162 78 274 289 294 288 311 322 310 233 122 118 125 117 109 107 109 113 125 129 128 128 137 137 131 121 115 113 109 107 100 100 104 99
59 61 298 302 202 213 154 254 262 271 143 180 208 199 187 351 354 343 349 346 343 341 335 327 38 99 121 116 109 105 108 104 104 122 123 127 129 129 134 131 132 122 114 109 118 113 108 99 101
36 203 238 286 297 150 171 247 274 292 153 221 243 236 234 294 331 336 350 355 359 354 355 3 46 105 113 104 92 100 112 105 102 105 115 127 127 127 124 133 128 126 115 109 124 101 114 131 121
211 208 232 244 294 111 230 257 279 281 208 233 245 251 251 268 281 304 339 349 1 17 35 47 62 81 95 99 96 84 84 87 89 98 102 117 125 127 120 111 127 128 123 121 125 123 88 119 161
171 185 234 255 295 282 248 261 272 275 255 248 243 238 247 263 292 328 0 8 20 27 37 42 51 52 84 87 99 99 96 80 82 86 90 98 113 123 119 107 112 131 152 157 143 134 109 67 58
182 216 251 289 329 257 278 274 268 251 238 233 227 227 232 255 315 343 357 15 12 12 23 38 45 53 51 82 120 116 128 119 77 66 81 89 93 116 128 113 125 126 152 148 144 132 132 110 90
223 210 220 245 332 3 321 300 272 270 242 257 247 234 236 231 247 284 326 338 354 344 338 13 20 57 56 60 81 86 82 69 49 25 63 67 94 101 115 120 123 125 143 162 172 171 162 171 197
234 217 202 216 49 293 26 288 281 275 301 286 272 279 280 265 251 253 257 290 280 269 293 31 37 52 57 71 85 96 113 126 181 110 52 50 74 83 90 110 121 131 136 157 180 174 174 167 184
199 153 153 192 177 293 229 227 283 314 274 265 265 277 296 285 247 244 241 235 236 239 73 57 55 50 48 67 83 95 93 121 95 68 70 44 49 62 72 105 108 120 138 162 174 177 167 171 178
148 87 68 57 87 265 226 198 275 239 235 255 258 271 289 301 279 250 250 206 159 96 77 68 69 52 46 58 64 82 101 98 99 82 78 27 349 60 45 66 105 122 136 185 197 190 179 182 176
118 109 42 351 333 250 211 208 253 251 239 229 239 257 281 285 297 314 314 276 62 83 90 84 83 57 43 54 56 51 68 124 128 144 165 158 338 271 245 148 150 162 177 182 189 190 194 191 184
181 155 165 200 230 277 268 235 255 272 285 254 224 231 267 307 325 329 316 258 222 136 102 108 103 72 53 52 27 23 27 70 58 73 167 188 242 273 260 222 223 242 203 158 148 193 212 209 203
147 176 157 136 143 275 266 279 302 274 321 323 238 108 317 310 316 306 328 320 283 258 186 179 165 92 63 48 25 20 22 42 41 17 23 249 296 309 338 341 287 312 330 206 181 206 215 214 226
144 145 121 144 180 249 280 269 253 253 245 256 273 282 303 326 328 330 326 328 335 302 338 39 87 81 41 44 32 22 8 6 13 41 5 337 318 334 335 331 291 276 259 235 202 219 228 214 235
141 144 148 150 174 185 255 266 230 219 218 220 240 256 282 304 307 306 314 327 350 13 54 66 50 51 40 27 18 16 358 7 20 10 330 308 288 289 267 277 268 258 251 232 220 238 224 223 236
186 184 165 177 219 198 210 265 280 214 211 206 233 264 290 294 298 299 305 325 350 343 333 135 137 114 330 348 9 1 356 4 357 335 325 329 292 282 274 273 268 262 258 243 228 238 235 233 235
Height
1488 1489 1491 1493 1497 1510 1511 1506 1502 1501 1501 1500 1500 1501 1502 1505 1508 1511 1506 1504 1505 1507 1508 1509 1511 1512 1513 1514 1515 1516 1518 1519 1520 1521 1522 1523 1524 1525 1526 1526 1527 1528 1529 1529 1530 1531 1532 1532 1533
1488 1490 1492 1493 1505 1516 1512 1504 1502 1500 1499 1500 1500 1501 1502 1503 1504 1504 1503 1504 1506 1507 1508 1509 1510 1512 1513 1514 1515 1516 1518 1519 1520 1522 1523 1524 1524 1525 1526 1527 1528 1528 1529 1530 1531 1532 1532 1533 1534
1489 1490 1493 1497 1508 1512 1506 1501 1500 1499 1500 1499 1500 1501 1502 1503 1503 1503 1504 1505 1506 1507 1508 1509 1510 1511 1513 1514 1515 1516 1518 1519 1520 1522 1523 1524 1525 1526 1526 1527 1528 1529 1530 1531 1531 1532 1533 1534 1534
1490 1492 1494 1503 1507 1505 1501 1499 1498 1499 1499 1500 1500 1502 1503 1504 1503 1503 1504 1505 1506 1507 1508 1509 1510 1511 1512 1513 1515 1516 1517 1519 1520 1521 1523 1524 1525 1526 1527 1527 1528 1529 1530 1531 1532 1532 1533 1534 1535
1489 1491 1500 1507 1505 1502 1499 1498 1498 1498 1499 1500 1500 1501 1502 1503 1503 1503 1504 1504 1505 1506 1507 1508 1509 1510 1511 1513 1514 1515 1517 1518 1519 1521 1522 1523 1524 1525 1526 1527 1528 1529 1530 1531 1532 1533 1534 1535 1535
1490 1492 1506 1509 1504 1500 1498 1498 1498 1498 1499 1500 1500 1501 1502 1503 1502 1503 1503 1504 1505 1506 1506 1507 1509 1510 1511 1512 1513 1514 1516 1517 1519 1520 1522 1523 1524 1525 1526 1527 1528 1529 1530 1531 1532 1533 1534 1535 1535
1490 1496 1503 1504 1504 1501 1498 1497 1497 1498 1498 1499 1500 1501 1501 1502 1502 1502 1503 1504 1505 1505 1506 1507 1508 1509 1510 1511 1513 1514 1515 1516 1518 1519 1521 1522 1523 1524 1525 1526 1528 1529 1529 1531 1532 1533 1533 1534 1535
1489 1496 1501 1503 1502 1499 1496 1496 1496 1497 1498 1499 1500 1500 1500 1500 1501 1501 1502 1503 1504 1505 1505 1506 1507 1508 1509 1510 1512 1513 1514 1516 1517 1519 1520 1522 1523 1524 1525 1526 1527 1528 1529 1530 1531 1532 1533 1534 1535
1489 1498 1502 1501 1499 1497 1495 1496 1496 1496 1497 1498 1498 1499 1499 1499 1500 1500 1501 1502 1502 1503 1504 1505 1506 1507 1508 1509 1510 1512 1513 1515 1516 1517 1519 1521 1522 1523 1524 1525 1526 1528 1529 1530 1531 1531 1532 1533 1534
1489 1498 1496 1495 1494 1494 1494 1495 1496 1496 1497 1497 1497 1498 1498 1498 1499 1499 1499 1499 1500 1501 1503 1504 1504 1505 1507 1508 1509 1511 1512 1513 1515 1516 1518 1519 1520 1522 1523 1524 1525 1527 1528 1529 1530 1531 1532 1532 1533
1490 1494 1493 1493 1493 1493 1494 1495 1495 1496 1497 1496 1496 1496 1497 1497 1498 1498 1498 1499 1499 1500 1501 1502 1503 1504 1505 1506 1508 1509 1510 1512 1513 1514 1516 1517 1519 1520 1522 1523 1524 1526 1527 1528 1529 1530 1531 1532 1532
1491 1492 1492 1492 1492 1493 1494 1494 1495 1495 1495 1495 1495 1495 1495 1496 1496 1497 1497 1498 1498 1499 1500 1501 1502 1503 1503 1505 1506 1507 1509 1510 1511 1512 1514 1515 1517 1518 1520 1521 1522 1524 1525 1527 1527 1528 1529 1530 1531
1491 1492 1492 1492 1492 1493 1493 1494 1494 1494 1494 1494 1494 1494 1494 1495 1495 1496 1497 1497 1497 1498 1498 1499 1500 1501 1502 1503 1504 1506 1507 1508 1509 1510 1512 1513 1515 1516 1518 1520 1521 1523 1524 1525 1526 1527 1528 1529 1530
1491 1492 1492 1492 1492 1492 1493 1493 1494 1492 1493 1493 1493 1493 1493 1494 1494 1495 1495 1495 1496 1496 1497 1497 1498 1499 1500 1501 1502 1504 1505 1506 1507 1509 1510 1511 1513 1514 1516 1518 1519 1521 1522 1524 1524 1525 1526 1527 1528
1491 1492 1492 1492 1492 1493 1493 1494 1493 1492 1492 1491 1492 1492 1492 1493 1493 1493 1493 1494 1494 1495 1495 1496 1496 1497 1498 1499 1500 1501 1503 1504 1506 1507 1508 1509 1511 1512 1514 1515 1517 1519 1520 1522 1522 1523 1524 1525 1526
1492 1494 1496 1492 1492 1492 1496 1495 1492 1491 1490 1490 1491 1491 1491 1491 1492 1492 1492 1492 1492 1493 1494 1494 1494 1495 1496 1497 1498 1499 1501 1502 1504 1505 1506 1507 1509 1510 1511 1513 1515 1517 1518 1519 1520 1521 1522 1522 1523
1496 1499 1497 1494 1492 1492 1494 1494 1491 1490 1490 1489 1490 1489 1490 1490 1490 1490 1490 1491 1491 1491 1492 1492 1493 1493 1494 1494 1496 1497 1499 1500 1502 1503 1504 1505 1507 1508 1509 1511 1512 1514 1515 1517 1518 1518 1519 1520 1521
1498 1499 1497 1495 1493 1493 1494 1493 1490 1489 1489 1488 1488 1488 1488 1489 1489 1489 1489 1489 1489 1490 1490 1491 1491 1492 1493 1493 1494 1495 1497 1498 1499 1501 1502 1504 1505 1506 1507 1509 1510 1512 1513 1514 1515 1516 1517 1518 1518
1494 1496 1497 1494 1493 1494 1493 1492 1489 1487 1487 1487 1487 1487 1486 1486 1488 1488 1488 1488 1488 1488 1488 1489 1489 1490 1490 1491 1492 1493 1495 1496 1497 1498 1499 1501 1503 1504 1505 1506 1508 1509 1510 1511 1512 1514 1514 1515 1516
1494 1496 1497 1495 1493 1494 1494 1491 1487 1485 1485 1484 1484 1485 1485 1485 1486 1486 1486 1486 1486 1486 1487 1487 1488 1488 1489 1490 1491 1492 1493 1494 1495 1496 1497 1499 1500 1502 1503 1504 1505 1506 1508 1509 1510 1511 1511 1512 1513
1494 1496 1496 1496 1495 1494 1494 1489 1485 1483 1483 1482 1482 1483 1483 1483 1484 1484 1484 1484 1484 1485 1485 1486 1486 1487 1488 1489 1490 1491 1491 1492 1494 1494 1494 1496 1498 1499 1501 1502 1503 1504 1505 1505 1507 1508 1509 1509 1510
1493 1492 1494 1495 1498 1500 1498 1497 1486 1484 1483 1482 1481 1481 1481 1481 1481 1482 1482 1483 1484 1484 1485 1485 1485 1486 1486 1487 1488 1488 1489 1490 1491 1492 1492 1494 1495 1497 1498 1499 1500 1501 1502 1503 1504 1505 1505 1506 1507
1491 1491 1494 1495 1498 1501 1499 1501 1489 1485 1484 1481 1480 1479 1479 1479 1479 1480 1481 1482 1483 1483 1483 1484 1484 1484 1485 1485 1485 1486 1487 1488 1489 1490 1491 1492 1493 1494 1495 1496 1497 1498 1499 1500 1501 1502 1502 1503 1503
1490 1493 1496 1500 1501 1502 1497 1500 1490 1487 1480 1479 1478 1477 1478 1478 1478 1479 1479 1480 1481 1481 1481 1482 1482 1483 1483 1484 1484 1484 1485 1486 1487 1488 1489 1490 1491 1492 1493 1493 1494 1495 1496 1497 1498 1499 1499 1500 1500
1490 1495 1502 1503 1509 1503 1497 1497 1488 1478 1477 1476 1476 1476 1476 1477 1477 1477 1477 1477 1478 1478 1479 1480 1480 1481 1482 1483 1483 1483 1484 1485 1485 1486 1487 1488 1488 1489 1490 1491 1491 1492 1493 1494 1495 1495 1495 1496 1497
1490 1491 1499 1502 1505 1503 1498 1495 1483 1477 1475 1474 1475 1475 1475 1476 1476 1476 1476 1476 1476 1477 1477 1478 1479 1479 1480 1481 1481 1482 1482 1483 1483 1484 1485 1485 1485 1486 1487 1488 1488 1489 1490 1490 1491 1491 1492 1493 1493
1490 1493 1493 1501 1506 1506 1497 1492 1482 1475 1475 1474 1474 1474 1474 1475 1475 1475 1475 1476 1476 1476 1476 1477 1477 1478 1478 1479 1479 1479 1480 1480 1481 1482 1482 1482 1482 1483 1484 1485 1486 1486 1486 1487 1487 1488 1488 1489 1490
1488 1491 1497 1500 1501 1499 1495 1492 1484 1476 1474 1474 1474 1473 1474 1474 1474 1474 1474 1475 1475 1475 1475 1475 1475 1476 1476 1476 1477 1477 1478 1478 1479 1480 1480 1480 1480 1481 1481 1482 1482 1483 1483 1483 1484 1484 1485 1485 1486
1490 1492 1493 1499 1500 1500 1496 1485 1474 1473 1472 1473 1473 1473 1473 1473 1473 1473 1473 1474 1474 1474 1474 1474 1474 1475 1475 1475 1475 1475 1475 1476 1476 1477 1477 1477 1478 1478 1478 1479 1479 1479 1480 1480 1480 1480 1481 1482 1482
1487 1488 1492 1494 1498 1502 1501 1486 1470 1470 1470 1471 1471 1472 1472 1472 1472 1472 1472 1473 1473 1473 1473 1473 1473 1473 1473 1473 1473 1473 1473 1473 1473 1474 1474 1474 1475 1475 1475 1475 1475 1476 1476 1476 1476 1477 1477 1477 1478